Weather History for Salt Lake City, UT

Change the Weather History Date:

Thursday, February 23, 2012

  Actual Average Record
Temperature  
Mean Temperature 39 °F 37 °F  
Max Temperature 48 °F 46 °F 61 °F (2014)
Min Temperature 30 °F 28 °F 6 °F (1960)
Degree Days  
Heating Degree Days 26 28  
Month to date heating degree days 624 727  
Since 1 July heating degree days 3810 4121  
Cooling Degree Days 0 0  
Month to date cooling degree days 0 0  
Year to date cooling degree days 0 0  
Moisture  
Dew Point 17 °F    
Average Humidity 49    
Maximum Humidity 60    
Minimum Humidity 37    
Precipitation  
Precipitation T in 0.05 in 0.72 in (1930)
Month to date precipitation 0.83 1.00  
Year to date precipitation 2.62 2.25  
Snow  
Snow T in 0.40 in 6.40 in (1956)
Month to date snowfall 3.4 9.0  
Since 1 July snowfall 15.9 43.7  
Snow Depth 0.00 in    
Sea Level Pressure  
Sea Level Pressure 30.12 in    
Wind  
Wind Speed 15 mph (NNW)    
Max Wind Speed 38 mph    
Max Gust Speed 44 mph    
Visibility 10 miles    
Events Rain , Snow    
T = Trace of Precipitation, MM = Missing Value Source: NWS Daily Summary

Daily Weather History Graph

Daily Weather History Graph

Search for Another Location

Airport:

Trip Planner

Search our weather history database for the weather conditions in past years. The results will help you decide how hot, cold, wet, or windy it might be!

Date:

Astronomy

Feb. 23, 2012 Rise Set
Actual Time 7:11 AM MST 6:11 PM MST
Civil Twilight 6:43 AM MST 6:39 PM MST
Nautical Twilight 6:11 AM MST 7:11 PM MST
Astronomical Twilight 5:40 AM MST 7:42 PM MST
Moon 7:38 AM MST (2/23) 8:22 PM MST (2/23)
Length of Visible Light 11h 55m
Length of Day
11h 00m
Waxing Crescent, 3% of the Moon is Illuminated
Feb 23
Waxing Crescent
Feb 29
First Quarter
Mar 8
Full
Mar 14
Last Quarter
Mar 22
New

Hourly Weather History & Observations

Time (MST) Temp. Windchill Dew Point Humidity Pressure Visibility Wind Dir Wind Speed Gust Speed Precip Events Conditions
12:53 AM 44.1 °F 35.7 °F 30.9 °F 60% 29.85 in 10.0 mi North 20.7 mph - N/A   Overcast
1:53 AM 39.9 °F 29.5 °F 24.1 °F 53% 29.92 in 10.0 mi North 24.2 mph 29.9 mph N/A   Overcast
2:53 AM 37.9 °F 27.1 °F 17.1 °F 43% 29.96 in 9.0 mi North 23.0 mph 28.8 mph 0.00 in Rain , Snow Light Rain
3:53 AM 37.9 °F 27.6 °F 14.0 °F 38% 29.97 in 10.0 mi NW 20.7 mph 28.8 mph 0.00 in   Mostly Cloudy
4:53 AM 35.6 °F 25.5 °F 12.2 °F 38% 30.02 in 10.0 mi NW 17.3 mph 25.3 mph N/A   Partly Cloudy
5:53 AM 30.9 °F 22.8 °F 18.0 °F 59% 30.03 in 10.0 mi North 9.2 mph - N/A   Scattered Clouds
6:53 AM 30.2 °F 20.2 °F 17.6 °F 60% 30.07 in 10.0 mi North 12.7 mph - N/A   Scattered Clouds
7:53 AM 32.0 °F 23.6 °F 18.0 °F 56% 30.09 in 10.0 mi North 10.4 mph - N/A   Mostly Cloudy
8:53 AM 33.1 °F 23.0 °F 18.0 °F 54% 30.12 in 10.0 mi North 15.0 mph - N/A   Mostly Cloudy
9:53 AM 34.0 °F 25.5 °F 18.0 °F 52% 30.14 in 10.0 mi North 11.5 mph - N/A   Mostly Cloudy
10:53 AM 34.0 °F 24.2 °F 17.1 °F 50% 30.17 in 10.0 mi NNW 15.0 mph - N/A   Mostly Cloudy
11:53 AM 36.0 °F 26.7 °F 18.0 °F 48% 30.17 in 10.0 mi North 15.0 mph 20.7 mph N/A   Mostly Cloudy
12:53 PM 37.0 °F 29.3 °F 16.0 °F 42% 30.17 in 10.0 mi NW 11.5 mph 23.0 mph N/A   Mostly Cloudy
1:53 PM 39.0 °F 32.3 °F 15.1 °F 38% 30.15 in 10.0 mi NW 10.4 mph - N/A   Scattered Clouds
2:53 PM 37.0 °F 31.0 °F 15.1 °F 41% 30.16 in 10.0 mi NW 8.1 mph - N/A   Scattered Clouds
3:53 PM 39.9 °F 35.8 °F 15.1 °F 36% 30.16 in 10.0 mi NNW 5.8 mph - N/A   Mostly Cloudy
4:53 PM 37.9 °F 33.5 °F 10.9 °F 33% 30.17 in 10.0 mi WNW 5.8 mph - N/A   Scattered Clouds
5:53 PM 36.0 °F - 14.0 °F 41% 30.20 in 10.0 mi Calm Calm - N/A   Mostly Cloudy
6:53 PM 35.1 °F - 14.0 °F 42% 30.21 in 10.0 mi Calm Calm - N/A   Scattered Clouds
7:53 PM 33.1 °F - 14.0 °F 46% 30.22 in 10.0 mi Calm Calm - N/A   Scattered Clouds
8:53 PM 34.0 °F - 15.1 °F 46% 30.22 in 10.0 mi Calm Calm - N/A   Scattered Clouds
9:53 PM 30.9 °F 27.5 °F 15.1 °F 52% 30.24 in 10.0 mi ESE 3.5 mph - N/A   Scattered Clouds
10:53 PM 28.9 °F 23.9 °F 17.1 °F 61% 30.26 in 10.0 mi South 4.6 mph - N/A   Mostly Cloudy
11:53 PM 30.9 °F 27.5 °F 15.1 °F 52% 30.26 in 10.0 mi SSE 3.5 mph - N/A   Scattered Clouds